Location: *
(58.7167°N, 26.1833°E)
Time: 09:20:50
(UTC+00:00)

Cosmos 2219 Rocket - Pass Details

Date: 25 August 2019
Orbit: 829 x 845 km, 71.0° (Epoch: 21 October)

Event Time Altitude Azimuth Distance (km) Brightness Sun altitude
Rises 23:22:01 0° 319° (NW) 3,387 5.8 -19.5°
Reaches altitude 10° 23:25:08 10° 302° (WNW) 2,447 4.8 -19.3°
Maximum altitude 23:28:53 19° 259° (W) 1,901 3.8 -19.2°
Enters shadow 23:29:28 18° 251° (WSW) 1,914 3.7 -19.2°
